Погода в Залесове

Россия / Алтайский край     53°59′23″N   84°44′50″E
темп.,
°C
ветер,
м/с
пор.,
м/с
влажн.,
%
обл.,
%
осадки,
мм/ч
давл.,
гПа
погр.,
м
24 января, пн
пн2401:00−16зюз1198100 0.1 103628
04:00−19з11100100 0.1 10369
07:00−21зсз1110080 0.1 10379
10:00−23всв0010081 0.0 10389
13:00−16ююв129366 0.1 1039133
16:00−15ю229441 0.0 1039122
19:00−22вюв1110065 0.0 10419
22:00−25вюв1110099 0.0 10419
25 января, вт
вт2501:00−24юв11100100 0.0 10409
04:00−26вюв11100100 0.0 10409
07:00−27юв11100100 0.1 10399
10:00−23ю11100100 0.0 103844
13:00−18ююз2295100 0.1 1037198
16:00−15ююз2392100 0.0 1035289
19:00−17ю229997 0.1 103549
22:00−19ююв22100100 0.0 103548
26 января, ср
ср2601:00−20юв2210098 0.0 103539
04:00−19юв2598100 0.0 1034112
07:00−18юв3697100 0.0 1033154
10:00−17юв3795100 0.0 1032173
13:00−14ююв4788100 0.0 1031309
16:00−11ю3793100 0.3 1030562
19:00−12ююв2696100 0.6 1031173
22:00−13юв249797 0.3 103269
27 января, чт
чт2701:00−16юв119998 0.3 103310
04:00−18юв1199100 0.1 10349
07:00−20вюв11100100 0.1 10369
10:00−19юв1199100 0.1 103823
13:00−13ююв2394100 0.1 1038177
16:00−11ююв2393100 0.1 1038281
19:00−17юв1110098 0.1 10409
22:00−21вюв11100100 0.1 10409
28 января, пт
пт2801:00−23вюв11100100 0.1 10419
04:00−25вюв11100100 0.0 10419
07:00−26вюв11100100 0.1 10419
10:00−26в11100100 0.0 104110
13:00−16ююз119692 0.0 1039108
16:00−14ююз009330 0.0 103878
19:00−21св1110032 0.0 10389
22:00−23св2210058 0.0 103810